This demonstration page uses our WeatherBlox Daily Observations layout. Learn more.

41.55636, -103.73856

Hourly Observations for October 23, 2016

Temp ( °F °C ) Dew Point ( °F °C ) Humidity (%) Winds ( mph kmh ) Pressure ( in mb ) Visibility ( mi km ) Precip ( " mm )
12:53 am 00:53 Clear 48 8.9 30 -1.1 50 50 Calm 30 1016 10 16.0934 0 0
1:53 am 01:53 Clear 44 6.7 31 -0.6 60 60 Calm 30.04 1017 10 16.0934 0 0
2:53 am 02:53 Clear 44 6.7 31 -0.6 60 60 WNW 3 6 30.06 1018 10 16.0934 0 0
3:53 am 03:53 Clear 45 7.2 32 0 61 61 NW 3 6 30.07 1018 10 16.0934 0 0
4:53 am 04:53 Clear 39 3.9 31 -0.6 73 73 NW 3 6 30.12 1020 10 16.0934 0 0
5:53 am 05:53 Clear 37 2.8 30 -1.1 76 76 Calm 30.16 1021 10 16.0934 0 0
6:53 am 06:53 Clear 33 0.6 28 -2.2 82 82 NW 5 7 30.21 1023 10 16.0934 0 0
7:53 am 07:53 Sunny 34 1.1 29 -1.7 82 82 Calm 30.23 1024 10 16.0934 0 0
8:53 am 08:53 Sunny 44 6.7 34 1.1 68 68 Calm 30.23 1024 10 16.0934 0 0
9:53 am 09:53 Sunny 50 10 34 1.1 54 54 S 3 6 30.22 1024 10 16.0934 0 0
10:53 am 10:53 Sunny 54 12.2 32 0 43 43 SSE 12 19 30.22 1024 10 16.0934 0 0
11:53 am 11:53 Sunny 58 14.4 32 0 38 38 SE 9 15 30.2 1023 10 16.0934 0 0
12:53 pm 12:53 Sunny 59 15 27 -2.8 29 29 SE 10 17 30.18 1022 10 16.0934 0 0
1:53 pm 13:53 Sunny 64 17.8 28 -2.2 26 26 ESE 13 20 30.14 1021 10 16.0934 0 0
2:53 pm 14:53 Sunny 64 17.8 27 -2.8 25 25 ESE 14 22 30.13 1020 10 16.0934 0 0
3:53 pm 15:53 Sunny 65 18.3 27 -2.8 24 24 ESE 16 26 30.11 1020 10 16.0934 0 0
4:53 pm 16:53 Sunny 63 17.2 28 -2.2 27 27 E 14 22 30.12 1020 10 16.0934 0 0
5:53 pm 17:53 Sunny 58 14.4 28 -2.2 32 32 ESE 13 20 30.15 1021 10 16.0934 0 0
6:53 pm 18:53 Clear 54 12.2 29 -1.7 38 38 ESE 12 19 30.18 1022 10 16.0934 0 0
7:53 pm 19:53 Clear 52 11.1 30 -1.1 43 43 E 10 17 30.21 1023 10 16.0934 0 0
8:53 pm 20:53 Clear 49 9.4 29 -1.7 46 46 ESE 10 17 30.2 1023 10 16.0934 0 0
9:53 pm 21:53 Clear 47 8.3 29 -1.7 50 50 ESE 9 15 30.21 1023 10 16.0934 0 0
10:53 pm 22:53 Clear 44 6.7 29 -1.7 55 55 E 8 13 30.22 1023 10 16.0934 0 0
11:53 pm 23:53 Clear 44 6.7 28 -2.2 53 53 E 9 15 30.2 1023 10 16.0934 0 0

Powered by AerisWeather